Weather in Verkh-Neivinsky

Russia / Sverdlovsk Oblast     57°15′56″N   60°07′53″E
temp.,
°C
wind,
m/s
gust,
m/s
humid.,
%
clouds,
%
prec.,
mm/h
press.,
hPa
HPBL,
m
6 march, sat
sat623:00−11w3119274 0.0 1001385
02:00−13w4129027 0.0 1003435
05:00−15wsw4119320 0.0 1005271
08:00−14wsw5129248 0.0 1006424
11:00−9w6128267 0.0 10071098
14:00−8w71277100 0.1 10071623
17:00−9w51177100 0.2 10071324
20:00−14w3118948 0.0 1009346
7 march, sun
sun723:00−17w259424 0.0 101189
02:00−20wsw23980 0.0 101131
05:00−21wsw23980 0.0 101228
08:00−22wsw22970 0.0 101220
11:00−14w23853 0.0 1011385
14:00−10w227894 0.1 1010835
17:00−11w128297 0.1 1009533
20:00−16nw1294100 0.1 100920
8 march, mon
mon823:00−19w129472 0.1 100920
02:00−20w22964 0.0 100920
05:00−22wsw22962 0.0 101027
08:00−23wsw22980 0.0 100920
11:00−15ssw238629 0.0 1008262
14:00−10sse4690100 0.1 1006534
17:00−8sse4792100 0.5 1004613
20:00−9sse3996100 0.8 1003500
9 march, tue
tue923:00−10ssw3119297 0.9 1004379
02:00−12s239354 0.0 100281
05:00−9sse4129577 0.6 999523
08:00−6ssw71593100 0.5 9971164
11:00−6wsw7128092 0.6 9991105
14:00−5wsw697890 0.1 10011284
17:00−6wsw488295 0.4 10021019
20:00−11w4119070 0.0 1004325
10 march, wed
wed1023:00−14w239541 0.0 100763
02:00−16sw249680 0.0 100872
05:00−16sw259678 0.0 100889
08:00−16wsw249696 0.0 100876
11:00−11wsw248996 0.1 1008469
14:00−9wsw2385100 0.3 1008664
17:00−9wsw3585100 0.7 1007716
20:00−13wnw3795100 0.1 1007219